QXE2307 KSEA-CYYC

Flight info

Callsign QXE2307
Flight time 1h 9m
Altitude 29000
Route ALPSE DCT YDC DCT MENBO DCT NORET IGVEP7
Aircraft E75L/M-SDE3GILORVW/S

Departure

Time 2026-05-05 00:40
Airport Seattle–Tacoma International Airport (KSEA)

Arrival

Time 2026-05-05 01:50
Airport Calgary International Airport (CYYC)
Time Latitude Longitude Altitude Speed Heading
2026-05-05 00:29 47.44654 -122.30349 401 ft 0 kts 223°
2026-05-05 00:33 47.44666 -122.30331 402 ft 4 kts 231°
2026-05-05 00:33 47.44680 -122.30297 402 ft 4 kts 251°
2026-05-05 00:33 47.44683 -122.30258 403 ft 4 kts 277°
2026-05-05 00:34 47.44679 -122.30234 403 ft 1 kts 295°
2026-05-05 00:36 47.44685 -122.30248 400 ft 7 kts 306°
2026-05-05 00:36 47.44737 -122.30337 404 ft 13 kts 311°
2026-05-05 00:36 47.44772 -122.30396 403 ft 14 kts 309°
2026-05-05 00:37 47.44879 -122.30635 405 ft 11 kts
2026-05-05 00:37 47.44956 -122.30629 408 ft 11 kts
2026-05-05 00:37 47.45053 -122.30628 409 ft 17 kts
2026-05-05 00:37 47.45194 -122.30627 416 ft 22 kts
2026-05-05 00:38 47.45348 -122.30629 420 ft 23 kts 359°
2026-05-05 00:38 47.45508 -122.30625 422 ft 24 kts 359°
2026-05-05 00:38 47.45682 -122.30623 425 ft 25 kts
2026-05-05 00:38 47.45858 -122.30622 433 ft 25 kts 360°
2026-05-05 00:39 47.46001 -122.30666 430 ft 18 kts 297°
2026-05-05 00:39 47.45961 -122.30781 433 ft 16 kts 184°
2026-05-05 00:39 47.45783 -122.30781 419 ft 39 kts 180°
2026-05-05 00:39 47.45242 -122.30785 415 ft 115 kts 180°
2026-05-05 00:40 47.44247 -122.30795 659 ft 157 kts 182°
2026-05-05 00:40 47.43124 -122.30772 1446 ft 166 kts 179°
2026-05-05 00:40 47.41976 -122.30685 2198 ft 171 kts 180°
2026-05-05 00:40 47.40773 -122.30400 2903 ft 184 kts 158°
2026-05-05 00:41 47.39819 -122.29082 3595 ft 194 kts 115°
2026-05-05 00:41 47.39550 -122.27108 4225 ft 205 kts 91°
2026-05-05 00:41 47.39903 -122.25099 4848 ft 211 kts 49°
2026-05-05 00:41 47.41135 -122.23876 5480 ft 221 kts 14°
2026-05-05 00:42 47.42638 -122.23575 6403 ft 222 kts
2026-05-05 00:42 47.44268 -122.23269 6667 ft 253 kts
2026-05-05 00:42 47.46048 -122.22549 7015 ft 277 kts 27°
2026-05-05 00:42 47.47698 -122.21114 7805 ft 280 kts 23°
2026-05-05 00:43 47.49575 -122.20397 8635 ft 280 kts
2026-05-05 00:43 47.51504 -122.20065 9465 ft 280 kts
2026-05-05 00:43 47.53430 -122.19607 10186 ft 282 kts
2026-05-05 00:43 47.55447 -122.19158 10389 ft 303 kts
2026-05-05 00:44 47.57603 -122.18741 10588 ft 322 kts
2026-05-05 00:44 47.59871 -122.18329 10973 ft 332 kts
2026-05-05 00:44 47.62172 -122.17926 11597 ft 334 kts
2026-05-05 00:44 47.64479 -122.17525 12309 ft 334 kts
2026-05-05 00:45 47.66759 -122.17127 13017 ft 336 kts
2026-05-05 00:45 47.69088 -122.16723 13742 ft 338 kts
2026-05-05 00:45 47.71434 -122.16313 14405 ft 341 kts
2026-05-05 00:45 47.73798 -122.15903 15085 ft 343 kts
2026-05-05 00:46 47.76178 -122.15488 15761 ft 345 kts
2026-05-05 00:46 47.78576 -122.15070 16414 ft 348 kts
2026-05-05 00:46 47.80992 -122.14651 17047 ft 351 kts
2026-05-05 00:46 47.83425 -122.14220 17699 ft 354 kts
2026-05-05 00:47 47.85880 -122.13792 18324 ft 356 kts
2026-05-05 00:47 47.88349 -122.13366 18919 ft 358 kts
2026-05-05 00:47 47.90833 -122.12935 19550 ft 360 kts
2026-05-05 00:47 47.93292 -122.12506 20217 ft 362 kts
2026-05-05 00:48 47.95796 -122.12072 20899 ft 363 kts
2026-05-05 00:48 47.98308 -122.11639 21537 ft 365 kts
2026-05-05 00:48 48.00835 -122.11201 22128 ft 367 kts
2026-05-05 00:48 48.03378 -122.10764 22694 ft 369 kts
2026-05-05 00:49 48.05940 -122.10320 23255 ft 371 kts
2026-05-05 00:49 48.08511 -122.09875 23755 ft 373 kts
2026-05-05 00:49 48.11096 -122.09428 24205 ft 375 kts
2026-05-05 00:49 48.13696 -122.08978 24663 ft 377 kts
2026-05-05 00:50 48.16258 -122.08351 25081 ft 381 kts 14°
2026-05-05 00:50 48.18703 -122.06764 25576 ft 386 kts 28°
2026-05-05 00:50 48.20841 -122.04320 26212 ft 387 kts 37°
2026-05-05 00:50 48.22872 -122.01687 26780 ft 386 kts 37°
2026-05-05 00:51 48.24888 -121.99049 27480 ft 382 kts 37°
2026-05-05 00:51 48.26875 -121.96408 28113 ft 381 kts 37°
2026-05-05 00:51 48.28843 -121.93749 28652 ft 381 kts 38°
2026-05-05 00:51 48.30777 -121.91109 29137 ft 381 kts 38°
2026-05-05 00:52 48.32764 -121.88376 29073 ft 394 kts 38°
2026-05-05 00:52 48.34797 -121.85532 29063 ft 405 kts 39°
2026-05-05 00:52 48.36885 -121.82608 28999 ft 416 kts 39°
2026-05-05 00:53 48.41172 -121.76577 28965 ft 425 kts 39°
2026-05-05 00:53 48.45496 -121.70499 28941 ft 424 kts 38°
2026-05-05 00:54 48.49816 -121.64421 28927 ft 425 kts 38°
2026-05-05 00:54 48.54163 -121.58300 28951 ft 426 kts 38°
2026-05-05 00:55 48.58466 -121.52214 28932 ft 426 kts 39°
2026-05-05 00:55 48.62790 -121.46085 28944 ft 427 kts 38°
2026-05-05 00:56 48.67125 -121.39932 28776 ft 426 kts 39°
2026-05-05 00:56 48.71427 -121.33790 28839 ft 424 kts 39°
2026-05-05 00:57 48.75695 -121.27699 28839 ft 423 kts 39°
2026-05-05 00:57 48.79975 -121.21580 28849 ft 421 kts 39°
2026-05-05 00:58 48.84251 -121.15439 28840 ft 422 kts 38°
2026-05-05 00:58 48.88539 -121.09271 28829 ft 427 kts 39°
2026-05-05 00:59 48.92823 -121.03089 28840 ft 424 kts 38°
2026-05-05 00:59 48.97089 -120.96929 28846 ft 426 kts 38°
2026-05-05 01:00 49.01396 -120.90692 28833 ft 428 kts 38°
2026-05-05 01:00 49.05685 -120.84448 28868 ft 427 kts 38°
2026-05-05 01:01 49.09966 -120.78212 28865 ft 426 kts 38°
2026-05-05 01:01 49.14221 -120.72010 28877 ft 426 kts 38°
2026-05-05 01:02 49.18501 -120.65744 28855 ft 426 kts 38°
2026-05-05 01:02 49.22756 -120.59495 28891 ft 421 kts 38°
2026-05-05 01:03 49.26992 -120.53272 28887 ft 423 kts 38°
2026-05-05 01:03 49.31224 -120.47035 28891 ft 422 kts 38°
2026-05-05 01:04 49.35426 -120.40824 28895 ft 422 kts 38°
2026-05-05 01:04 49.38809 -120.33333 28949 ft 440 kts 59°
2026-05-05 01:04 49.39989 -120.29006 28889 ft 438 kts 60°
2026-05-05 01:05 49.42271 -120.20303 28860 ft 440 kts 60°
2026-05-05 01:05 49.44527 -120.11582 28867 ft 439 kts 60°
2026-05-05 01:06 49.46762 -120.02927 28857 ft 439 kts 61°
2026-05-05 01:06 49.49010 -119.94177 28853 ft 440 kts 60°
2026-05-05 01:07 49.51242 -119.85466 28834 ft 438 kts 60°
2026-05-05 01:07 49.53473 -119.76746 28834 ft 438 kts 60°
2026-05-05 01:08 49.55677 -119.68074 28838 ft 439 kts 60°
2026-05-05 01:08 49.57898 -119.59324 28830 ft 437 kts 60°
2026-05-05 01:09 49.60096 -119.50597 28824 ft 435 kts 60°
2026-05-05 01:09 49.62286 -119.41883 28832 ft 436 kts 60°
2026-05-05 01:10 49.64478 -119.33157 28839 ft 437 kts 60°
2026-05-05 01:10 49.66644 -119.24471 28849 ft 436 kts 60°
2026-05-05 01:11 49.68823 -119.15719 28863 ft 438 kts 60°
2026-05-05 01:11 49.70987 -119.06958 28851 ft 436 kts 60°
2026-05-05 01:12 49.73144 -118.98202 28874 ft 436 kts 60°
2026-05-05 01:12 49.75291 -118.89481 28869 ft 437 kts 60°
2026-05-05 01:13 49.77439 -118.80687 28863 ft 435 kts 60°
2026-05-05 01:13 49.79583 -118.71906 28853 ft 436 kts 60°
2026-05-05 01:14 49.81716 -118.63119 28890 ft 436 kts 60°
2026-05-05 01:14 49.83829 -118.54368 28897 ft 435 kts 60°
2026-05-05 01:15 49.85954 -118.45600 28872 ft 435 kts 60°
2026-05-05 01:15 49.88073 -118.36804 28885 ft 437 kts 60°
2026-05-05 01:16 49.90185 -118.27988 28865 ft 434 kts 60°
2026-05-05 01:16 49.92261 -118.19248 28876 ft 437 kts 60°
2026-05-05 01:17 49.94361 -118.10420 28860 ft 435 kts 60°
2026-05-05 01:17 49.96456 -118.01563 28857 ft 438 kts 61°
2026-05-05 01:18 49.98511 -117.92732 28840 ft 422 kts 60°
2026-05-05 01:18 50.00546 -117.84126 28902 ft 434 kts 60°
2026-05-05 01:19 50.02624 -117.75273 28854 ft 435 kts 60°
2026-05-05 01:19 50.04694 -117.66416 28892 ft 438 kts 61°
2026-05-05 01:20 50.06750 -117.57508 28884 ft 439 kts 61°
2026-05-05 01:20 50.08777 -117.48627 28862 ft 435 kts 60°
2026-05-05 01:21 50.10820 -117.39761 28894 ft 435 kts 60°
2026-05-05 01:21 50.12860 -117.30870 28878 ft 436 kts 61°
2026-05-05 01:22 50.14901 -117.21956 28920 ft 436 kts 61°
2026-05-05 01:22 50.16891 -117.13147 28859 ft 426 kts 61°
2026-05-05 01:23 50.18867 -117.04457 28948 ft 433 kts 60°
2026-05-05 01:23 50.20873 -116.95554 28935 ft 437 kts 60°
2026-05-05 01:24 50.22875 -116.86587 28945 ft 438 kts 61°
2026-05-05 01:24 50.24861 -116.77601 28969 ft 437 kts 61°
2026-05-05 01:25 50.26845 -116.68669 29069 ft 437 kts 61°
2026-05-05 01:25 50.27846 -116.64170 28928 ft 437 kts 60°
2026-05-05 01:25 50.28854 -116.59672 28982 ft 438 kts 60°
2026-05-05 01:26 50.30836 -116.50663 29001 ft 439 kts 61°
2026-05-05 01:26 50.32825 -116.41656 29008 ft 437 kts 61°
2026-05-05 01:27 50.34793 -116.32693 29006 ft 438 kts 61°
2026-05-05 01:27 50.36722 -116.23674 28960 ft 440 kts 61°
2026-05-05 01:28 50.38701 -116.14593 29008 ft 441 kts 61°
2026-05-05 01:28 50.40647 -116.05478 29005 ft 440 kts 61°
2026-05-05 01:29 50.42637 -115.96461 29013 ft 440 kts 60°
2026-05-05 01:29 50.43642 -115.91961 28757 ft 431 kts 60°
2026-05-05 01:29 50.44601 -115.87619 28492 ft 412 kts 60°
2026-05-05 01:30 50.45533 -115.83428 27967 ft 403 kts 60°
2026-05-05 01:30 50.46459 -115.79312 27378 ft 398 kts 60°
2026-05-05 01:30 50.47380 -115.75208 26873 ft 400 kts 60°
2026-05-05 01:30 50.48311 -115.71052 26300 ft 406 kts 60°
2026-05-05 01:31 50.49242 -115.66848 25795 ft 408 kts 61°
2026-05-05 01:31 50.50179 -115.62620 25230 ft 411 kts 61°
2026-05-05 01:31 50.51101 -115.58440 24706 ft 409 kts 62°
2026-05-05 01:31 50.52028 -115.54225 24167 ft 407 kts 62°
2026-05-05 01:32 50.52950 -115.50027 23638 ft 405 kts 62°
2026-05-05 01:32 50.53865 -115.45863 23074 ft 400 kts 62°
2026-05-05 01:32 50.54759 -115.41742 22652 ft 398 kts 63°
2026-05-05 01:32 50.55643 -115.37604 22007 ft 399 kts 63°
2026-05-05 01:33 50.56523 -115.33489 21491 ft 397 kts 62°
2026-05-05 01:33 50.57382 -115.29448 21089 ft 392 kts 62°
2026-05-05 01:33 50.58253 -115.25387 20480 ft 390 kts 63°
2026-05-05 01:33 50.59105 -115.21378 20038 ft 387 kts 63°
2026-05-05 01:34 50.59971 -115.17343 19512 ft 390 kts 63°
2026-05-05 01:34 50.60824 -115.13303 18993 ft 390 kts 64°
2026-05-05 01:34 50.61663 -115.09274 18483 ft 385 kts 64°
2026-05-05 01:34 50.62487 -115.05303 17870 ft 380 kts 64°
2026-05-05 01:35 50.63325 -115.01389 17396 ft 375 kts 64°
2026-05-05 01:35 50.64153 -114.97543 16929 ft 376 kts 64°
2026-05-05 01:35 50.64967 -114.93670 16421 ft 369 kts 64°
2026-05-05 01:35 50.65772 -114.89841 15918 ft 367 kts 64°
2026-05-05 01:36 50.66575 -114.86044 15396 ft 363 kts 65°
2026-05-05 01:36 50.67368 -114.82286 15019 ft 362 kts 65°
2026-05-05 01:36 50.68144 -114.78544 14491 ft 355 kts 66°
2026-05-05 01:36 50.68885 -114.74879 14034 ft 347 kts 67°
2026-05-05 01:37 50.69613 -114.71302 13565 ft 338 kts 67°
2026-05-05 01:37 50.70335 -114.67854 13279 ft 324 kts 66°
2026-05-05 01:37 50.71329 -114.64839 13090 ft 299 kts 46°
2026-05-05 01:37 50.72660 -114.62498 12944 ft 283 kts 40°
2026-05-05 01:38 50.74012 -114.60373 12912 ft 268 kts 39°
2026-05-05 01:38 50.75324 -114.58313 12870 ft 265 kts 38°
2026-05-05 01:38 50.76621 -114.56246 12671 ft 265 kts 39°
2026-05-05 01:38 50.77901 -114.54164 12492 ft 264 kts 39°
2026-05-05 01:39 50.79193 -114.52063 12165 ft 268 kts 39°
2026-05-05 01:39 50.80495 -114.49947 11769 ft 268 kts 40°
2026-05-05 01:39 50.81792 -114.47852 11366 ft 266 kts 39°
2026-05-05 01:39 50.83102 -114.45869 11038 ft 262 kts 38°
2026-05-05 01:40 50.84422 -114.43900 10687 ft 261 kts 38°
2026-05-05 01:40 50.85740 -114.41921 10330 ft 260 kts 39°
2026-05-05 01:40 50.87039 -114.39950 9991 ft 257 kts 39°
2026-05-05 01:40 50.88328 -114.37993 9653 ft 255 kts 39°
2026-05-05 01:41 50.89602 -114.36049 9361 ft 253 kts 39°
2026-05-05 01:41 50.90824 -114.34126 9216 ft 245 kts 46°
2026-05-05 01:41 50.91538 -114.31703 9084 ft 248 kts 78°
2026-05-05 01:41 50.91580 -114.28953 9103 ft 252 kts 88°
2026-05-05 01:42 50.91514 -114.26193 8950 ft 263 kts 88°
2026-05-05 01:42 50.91438 -114.23284 8574 ft 263 kts 88°
2026-05-05 01:42 50.91364 -114.20385 8233 ft 263 kts 92°
2026-05-05 01:42 50.91138 -114.17540 7883 ft 254 kts 88°
2026-05-05 01:43 50.91129 -114.14815 7542 ft 241 kts 79°
2026-05-05 01:43 50.91397 -114.12263 7215 ft 230 kts 71°
2026-05-05 01:43 50.91628 -114.10646 7006 ft 223 kts 71°
2026-05-05 01:43 50.92014 -114.07511 6585 ft 213 kts 74°
2026-05-05 01:44 50.92233 -114.05286 6519 ft 197 kts 75°
2026-05-05 01:44 50.92425 -114.03184 6499 ft 190 kts 74°
2026-05-05 01:44 50.92790 -114.01219 6502 ft 183 kts 56°
2026-05-05 01:44 50.93591 -113.99720 6570 ft 179 kts 32°
2026-05-05 01:45 50.94709 -113.99015 6562 ft 174 kts
2026-05-05 01:45 50.95922 -113.99097 6588 ft 175 kts 356°
2026-05-05 01:45 50.96730 -113.99127 6541 ft 177 kts
2026-05-05 01:45 50.97956 -113.99045 6264 ft 171 kts
2026-05-05 01:46 50.99111 -113.99042 6061 ft 161 kts 360°
2026-05-05 01:46 51.00518 -113.99061 5770 ft 145 kts
2026-05-05 01:46 51.01509 -113.99051 5564 ft 140 kts
2026-05-05 01:46 51.02458 -113.99048 5368 ft 133 kts
2026-05-05 01:47 51.03379 -113.99048 5190 ft 134 kts
2026-05-05 01:47 51.04311 -113.99046 5019 ft 135 kts
2026-05-05 01:47 51.04929 -113.99046 4888 ft 134 kts
2026-05-05 01:47 51.05852 -113.99045 4689 ft 131 kts
2026-05-05 01:48 51.06765 -113.99049 4534 ft 131 kts 358°
2026-05-05 01:48 51.07653 -113.99057 4363 ft 124 kts
2026-05-05 01:48 51.08525 -113.99049 4134 ft 127 kts
2026-05-05 01:48 51.09757 -113.99045 3865 ft 141 kts
2026-05-05 01:49 51.10425 -113.99041 3733 ft 144 kts
2026-05-05 01:49 51.11399 -113.99040 3583 ft 137 kts
2026-05-05 01:49 51.12268 -113.99039 3563 ft 111 kts
2026-05-05 01:49 51.12884 -113.99050 3562 ft 56 kts 349°
2026-05-05 01:50 51.13057 -113.99155 3561 ft 19 kts 334°
2026-05-05 01:50 51.13154 -113.99257 3557 ft 13 kts 321°
2026-05-05 01:50 51.13160 -113.99378 3558 ft 10 kts 258°
2026-05-05 01:50 51.13157 -113.99456 3557 ft 11 kts 271°
2026-05-05 01:51 51.13129 -113.99554 3557 ft 10 kts 188°
2026-05-05 01:51 51.13054 -113.99552 3557 ft 12 kts 180°
2026-05-05 01:51 51.12965 -113.99552 3557 ft 14 kts 180°
2026-05-05 01:51 51.12864 -113.99552 3557 ft 13 kts 187°
2026-05-05 01:52 51.12833 -113.99634 3557 ft 9 kts 271°
2026-05-05 01:52 51.12833 -113.99750 3557 ft 11 kts 269°
2026-05-05 01:52 51.12833 -113.99809 3557 ft 0 kts 271°
2026-05-05 01:52 51.12833 -113.99824 3557 ft 2 kts 279°
2026-05-05 01:53 51.12843 -113.99842 3557 ft 2 kts 335°
2026-05-05 01:53 51.12857 -113.99843 3557 ft 3 kts 360°
2026-05-05 01:53 51.12882 -113.99843 3556 ft 4 kts 360°
2026-05-05 01:53 51.12916 -113.99854 3557 ft 6 kts 345°
2026-05-05 01:54 51.12943 -113.99865 3553 ft 0 kts 345°
2026-05-05 01:54 51.12942 -113.99865 3557 ft 0 kts 345°